Weather Roundup
Issued by NWS Chicago, IL

Home | Current Version | Previous Version | Text Only | Print | Product List | Glossary On
Versions: 1 2 3 4 5 6 7 8 9 10 11 12 13 14 15 16 17 18 19 20 21 22 23 24 25 26 27 28 29 30 31 32 33 34 35 36 37 38 39 40 41 42 43 44 45 46 47 48 49 50
300
NZUS59 KLOT 251308
HRRLOT

CHICAGO AREA WEATHER ROUNDUP
NATIONAL WEATHER SERVICE CHICAGO/ROMEOVILLE IL
800 AM CDT TUE JUL 25 2017

NOTE: "FAIR" INDICATES FEW OR NO CLOUDS BELOW 12,000 FEET WITH NO
SIGNIFICANT WEATHER AND/OR OBSTRUCTIONS TO VISIBILITY.

* THESE STATIONS ARE NOT UNDER NWS QUALITY CONTROL. THEY ALSO MAY NOT
  REPORT WEATHER SUCH AS PRECIPITATION OR FOG.

ILZ005-006-012>014-019>023-251400-
NORTHEAST ILLINOIS

CITY           SKY/WX    TMP DP  RH WIND       PRES   REMARKS
OHARE          MOSUNNY   70  60  70 SE12      30.19R
MIDWAY         MOSUNNY   70  59  68 SE9       30.19R
AURORA         MOSUNNY   67  63  87 SE7       30.20R
LANSING*       SUNNY     66  59  77 SE5       30.21R
JOLIET*        SUNNY     68  62  79 SE3       30.20R
WAUKEGAN       SUNNY     70  65  84 SE6       30.19R
DUPAGE AIRPORT SUNNY     67  62  84 S7        30.19R
WHEELING       SUNNY     69  65  86 SE7       30.21R
MORRIS*        PTSUNNY   66  62  86 SE6       30.19R
LEWIS AIRPORT* SUNNY     67  59  74 S6        30.21R
NORTHERLY ISL    N/A     71  60  68 SE3         N/A
$$

WIZ051-052-058>065-066-070>072-251400-
SOUTHEAST WISCONSIN

CITY           SKY/WX    TMP DP  RH WIND       PRES   REMARKS
MILWAUKEE      MOSUNNY   67  62  84 SE3       30.20R
KENOSHA*       SUNNY     68  63  84 E5        30.19S
RACINE*        SUNNY     69  64  84 E3        30.20F
WAUKESHA       SUNNY     63  59  88 CALM      30.20S
WEST BEND      SUNNY     63  61  94 CALM      30.20S
$$

INZ001>003-010>013-019-020-251400-
NORTHWEST INDIANA

CITY           SKY/WX    TMP DP  RH WIND       PRES   REMARKS
GARY*          MOSUNNY   68  59  73 SE8       30.22R
MICHIGAN CITY* NOT AVBL
RENSSELAER*    NOT AVBL
VALPARAISO     SUNNY     67  62  84 E6        30.23R
$$

LMZ740>746-251400-
SOUTHERN LAKE MICHIGAN

STATION/POSITION TIME  SKY/WX   TEMP WIND        PRES    VSBY
                                AIR  DIR/SP/G
                 (UTC)          (F)  (DEG/KT/KT) (MB)    (MI)
HARRISON CRIB    1240            71  160/ 10/ 13   N/A
BURNHAM HARBOR   1300            71                N/A
CALUMET HARBOR   1248            69  150/  5/  8 1022.2R
BURNS HARBOR     1240            68  120/  5/  7 1023.4R
MICHIGAN CITY    1230            65  130/  6/  8   N/A
$$

ABBREVIATIONS USED IN REMARKS
   TC - TEMPERATURE IN CELSIUS
  WCI - WIND CHILL INDEX
   HX - HEAT INDEX
  VSB - VISIBILITY
$$




USA.gov is the U.S. government's official web portal to all federal, state and local government web resources and services.